Date String (YYYY-MM-DD hh:mm:ss) UTC,Instrument flags,absolute air pressure of the measurement (hPa),sample flow rate (lpm),inlet stack bypass flow (lpm),air temperature of the measurement (°C),ambient temperature measured by the external sensor (°C),aerosol sample conditioner tube jacket temperature (°C),OPC LED temperature (°C),internal box temperature (°C),relative humidity of the measurement (%),span deviation,mass concentration of particles derived from Lorenz-Mie calculation of OPC scattering (μg/m³),mass concentration of particles derived from Lorenz-Mie calculation of OPC scattering (μg/m³),mass concentration of particles derived from Lorenz-Mie calculation of OPC scattering (μg/m³)
DateTimeUTC,F1_M11,P_M11,Q1_M11,Q2_M11,T1_M11,T2_M11,T3_M11,T4_M11,T5_M11,U1_M11,ZSPAN_M11,X2_M11,X0_M11,X1_M11
2023-08-13 12:00:00,SystemResetWarning,0834.3,5.00,000.00,029.6,028.4,000.0,038.2,031.3,31.5,0000.0,0004.99,0010.41,0004.15
2023-08-13 12:01:00,SystemResetWarning,0834.4,5.00,000.00,029.7,028.5,000.0,038.2,031.3,31.6,0000.0,0005.03,0010.37,0004.20
2023-08-13 12:02:00,SystemResetWarning,0834.7,5.00,000.00,029.7,028.5,000.0,038.2,031.4,31.6,0000.0,0005.08,0010.50,0004.24
2023-08-13 12:03:00,SystemResetWarning,0834.3,4.99,000.00,029.7,028.0,000.0,038.2,031.3,31.7,0000.0,0005.14,0010.95,0004.28
2023-08-13 12:04:00,SystemResetWarning,0834.5,5.00,000.00,029.7,026.1,000.0,038.0,031.0,31.8,0000.0,0005.18,0011.37,0004.32
2023-08-13 12:05:00,SystemResetWarning,0834.5,5.00,000.00,029.6,025.4,000.0,037.9,030.7,31.9,0000.0,0005.22,0011.99,0004.36
2023-08-13 12:06:00,SystemResetWarning,0834.3,5.01,000.00,029.4,025.5,000.0,037.9,030.6,32.2,0000.0,0005.31,0012.50,0004.40
2023-08-13 12:07:00,SystemResetWarning,0834.3,5.01,000.00,029.3,025.9,000.0,038.0,030.6,32.4,0000.0,0005.33,0012.55,0004.42
2023-08-13 12:08:00,SystemResetWarning,0834.3,5.00,000.00,029.3,026.2,000.0,038.0,030.7,32.5,0000.0,0005.35,0012.87,0004.44
2023-08-13 12:09:00,SystemResetWarning,0834.4,5.00,000.00,029.3,026.6,000.0,038.0,030.8,32.4,0000.0,0005.38,0013.63,0004.46
2023-08-13 12:10:00,SystemResetWarning,0834.4,5.00,000.00,029.3,027.0,000.0,038.0,030.9,32.4,0000.1,0005.41,0014.24,0004.48
2023-08-13 12:11:00,SystemResetWarning,0834.5,5.00,000.00,029.3,027.2,000.0,038.0,030.9,32.4,0000.0,0005.43,0015.12,0004.50
2023-08-13 12:12:00,SystemResetWarning,0834.5,5.01,000.00,029.4,027.5,000.0,038.0,031.0,32.6,0000.0,0005.43,0016.17,0004.52
2023-08-13 12:13:00,SystemResetWarning,0834.5,5.00,000.00,029.4,027.7,000.0,038.0,031.0,32.3,0000.0,0005.42,0016.24,0004.53
2023-08-13 12:14:00,SystemResetWarning,0834.5,4.99,000.00,029.4,027.9,000.0,038.0,031.1,32.2,0000.0,0005.44,0016.21,0004.55
2023-08-13 12:15:00,SystemResetWarning,0834.7,4.99,000.00,029.4,028.0,000.0,038.0,031.1,32.2,0000.0,0005.47,0016.06,0004.56
2023-08-13 12:16:00,SystemResetWarning,0834.8,5.00,000.00,029.5,028.1,000.0,038.0,031.1,32.1,0000.0,0005.47,0016.65,0004.56
2023-08-13 12:17:00,SystemResetWarning,0834.7,5.01,000.00,029.5,028.2,000.0,038.0,031.2,32.1,0000.0,0005.41,0016.07,0004.57
2023-08-13 12:18:00,SystemResetWarning,0835.2,5.01,000.00,029.5,028.3,000.0,038.1,031.2,31.9,0000.0,0005.44,0015.70,0004.59
2023-08-13 12:19:00,SystemResetWarning,0835.0,5.01,000.00,029.6,028.4,000.0,038.1,031.3,31.9,0000.0,0005.50,0015.60,0004.61
2023-08-13 12:20:00,SystemResetWarning,0834.9,5.00,000.00,029.6,028.5,000.0,038.1,031.3,31.3,0000.0,0005.53,0014.89,0004.63
2023-08-13 12:21:00,SystemResetWarning,0835.1,5.00,000.00,029.6,028.5,000.0,038.1,031.3,31.5,0000.0,0005.54,0014.76,0004.65
2023-08-13 12:22:00,SystemResetWarning,0835.3,5.00,000.00,029.7,028.6,000.0,038.1,031.4,31.8,0000.0,0005.57,0014.77,0004.66
2023-08-13 12:23:00,SystemResetWarning,0835.0,5.00,000.00,029.7,028.6,000.0,038.2,031.4,30.9,0000.0,0005.61,0013.47,0004.67
2023-08-13 12:24:00,SystemResetWarning,0835.1,5.00,000.00,029.7,028.7,000.0,038.2,031.4,31.0,-000.3,0005.64,0013.30,0004.68
2023-08-13 12:25:00,SystemResetWarning,0835.0,4.99,000.00,029.7,028.0,000.0,038.1,031.3,30.9,-000.2,0005.68,0013.19,0004.68
2023-08-13 12:26:00,SystemResetWarning,0835.0,5.00,000.00,029.7,026.1,000.0,038.0,031.0,31.0,-000.6,0005.70,0013.25,0004.69
2023-08-13 12:27:00,SystemResetWarning,0835.3,5.01,000.00,029.6,025.5,000.0,037.9,030.7,31.0,-000.7,0005.71,0012.74,0004.71
2023-08-13 12:28:00,SystemResetWarning,0835.2,5.01,000.00,029.4,025.6,000.0,037.9,030.5,31.4,0000.0,0005.77,0012.62,0004.72
2023-08-13 12:29:00,SystemResetWarning,0834.9,5.00,000.00,029.4,026.0,000.0,038.0,030.6,31.9,0000.5,0005.83,0013.30,0004.74
2023-08-13 12:30:00,SystemResetWarning,0835.0,5.00,000.00,029.4,026.4,000.0,038.0,030.7,31.3,0001.0,0005.89,0013.72,0004.74
2023-08-13 12:31:00,SystemResetWarning,0835.0,5.00,000.00,029.3,026.7,000.0,038.0,030.8,31.3,0001.1,0005.89,0014.89,0004.74
2023-08-13 12:32:00,SystemResetWarning,0835.0,5.01,000.00,029.4,027.1,000.0,038.0,030.9,30.9,0001.0,0005.91,0015.48,0004.75
2023-08-13 12:33:00,SystemResetWarning,0835.0,4.99,000.00,029.4,027.3,000.0,038.0,031.0,30.8,0000.6,0005.91,0014.28,0004.76
2023-08-13 12:34:00,SystemResetWarning,0835.1,5.00,000.00,029.4,027.6,000.0,038.0,031.0,30.7,0000.4,0005.89,0014.31,0004.77
2023-08-13 12:35:00,SystemResetWarning,0835.1,5.01,000.00,029.4,027.7,000.0,038.0,031.0,30.7,0000.2,0005.93,0014.73,0004.77
2023-08-13 12:36:00,SystemResetWarning,0835.1,5.00,000.00,029.4,027.9,000.0,038.0,031.1,30.7,-000.2,0005.98,0014.97,0004.78
2023-08-13 12:37:00,SystemResetWarning,0835.1,5.00,000.00,029.5,028.1,000.0,038.0,031.1,30.7,-000.2,0005.98,0015.29,0004.78
2023-08-13 12:38:00,SystemResetWarning,0835.1,5.00,000.00,029.5,028.2,000.0,038.0,031.2,30.6,0000.0,0005.99,0015.24,0004.77
2023-08-13 12:39:00,SystemResetWarning,0835.2,5.00,000.00,029.5,028.3,000.0,038.1,031.2,30.3,0000.0,0005.95,0014.74,0004.76
2023-08-13 12:40:00,SystemResetWarning,0835.2,5.00,000.00,029.6,028.3,000.0,038.1,031.2,30.4,-000.1,0005.87,0015.18,0004.73
2023-08-13 12:41:00,SystemResetWarning,0835.3,5.00,000.00,029.6,028.4,000.0,038.1,031.3,29.9,-001.0,0005.83,0015.64,0004.72
2023-08-13 12:42:00,SystemResetWarning,0835.3,5.00,000.00,029.6,028.5,000.0,038.1,031.3,29.6,-001.5,0005.82,0015.60,0004.71
2023-08-13 12:43:00,SystemResetWarning,0835.3,5.00,000.00,029.6,028.5,000.0,038.1,031.3,29.7,-001.7,0005.84,0014.40,0004.71
2023-08-13 12:44:00,SystemResetWarning,0835.3,5.00,000.00,029.7,028.6,000.0,038.2,031.4,29.3,-001.6,0005.84,0014.99,0004.70
2023-08-13 12:45:00,SystemResetWarning,0835.2,5.00,000.00,029.7,028.3,000.0,038.1,031.3,29.4,-001.6,0005.84,0015.51,0004.68
2023-08-13 12:46:00,SystemResetWarning,0835.3,5.00,000.00,029.7,026.5,000.0,038.0,031.1,29.6,-001.5,0005.79,0015.31,0004.66
2023-08-13 12:47:00,SystemResetWarning,0835.3,5.01,000.00,029.6,025.6,000.0,037.9,030.8,29.8,-001.5,0005.73,0015.09,0004.63
2023-08-13 12:48:00,SystemResetWarning,0835.3,5.00,000.00,029.5,025.6,000.0,037.9,030.6,30.2,-001.5,0005.65,0014.99,0004.61
2023-08-13 12:49:00,SystemResetWarning,0835.3,5.00,000.00,029.4,025.9,000.0,037.9,030.6,30.2,-001.0,0005.61,0015.05,0004.60
2023-08-13 12:50:00,SystemResetWarning,0835.3,5.00,000.00,029.3,026.3,000.0,038.0,030.7,29.9,-001.0,0005.61,0015.06,0004.59
2023-08-13 12:51:00,SystemResetWarning,0835.3,5.00,000.00,029.3,026.7,000.0,038.0,030.8,30.3,-001.5,0005.65,0014.45,0004.58
2023-08-13 12:52:00,SystemResetWarning,0835.3,5.00,000.00,029.4,027.0,000.0,038.0,030.9,30.1,-001.5,0005.65,0013.23,0004.56
2023-08-13 12:53:00,SystemResetWarning,0835.3,5.00,000.00,029.4,027.3,000.0,038.0,031.0,30.5,-001.3,0005.57,0013.04,0004.54
2023-08-13 12:54:00,SystemResetWarning,0835.3,5.00,000.00,029.4,027.5,000.0,038.0,031.0,30.4,-000.1,0005.50,0013.80,0004.52
2023-08-13 12:55:00,SystemResetWarning,0835.2,4.99,000.00,029.4,027.7,000.0,038.0,031.1,30.0,-000.5,0005.50,0013.69,0004.51
2023-08-13 12:56:00,SystemResetWarning,0835.2,5.00,000.00,029.4,027.9,000.0,038.0,031.1,30.1,-000.8,0005.47,0013.29,0004.49
2023-08-13 12:57:00,SystemResetWarning,0835.3,5.00,000.00,029.5,028.0,000.0,038.0,031.1,29.8,-000.7,0005.51,0013.17,0004.48
2023-08-13 12:58:00,SystemResetWarning,0835.3,5.00,000.00,029.5,028.1,000.0,038.0,031.2,30.2,-001.1,0005.53,0013.21,0004.47
2023-08-13 12:59:00,SystemResetWarning,0835.3,4.99,000.00,029.5,028.3,000.0,038.0,031.2,30.4,-000.6,0005.53,0012.81,0004.44
